[[[{"header":{"parameterUnit":"kt","parameterCategory":2,"dx":1,"dy":1,"la1":30.253999710083008,"la2":30.299108505249023,"lo1":-89.0895004272461,"lo2":-89.04439544677734,"nx":28,"ny":28,"refTime":"2022-10-22T21:00:00:Z","depth":0,"parameterNumber":1,"parameterNumberName":"U-component_of_WINDS"},"data":[-8.887,-8.9012,-8.9036,-8.9208,-8.9258,-8.9378,-8.9428,-8.9495,-8.9553,-8.9698,-8.9785,-8.9821,-8.9885,-8.9992,-9.0085,-9.0098,-9.0133,-9.0168,-9.0176,-9.0005,-8.9982,-8.9961,-8.9927,-9.0177,-9.0178,-9.0347,-9.0349,-9.035,-8.8743,-8.8794,-8.8893,-8.9004,-8.9088,-8.9069,-8.9154,-8.9224,-8.9332,-8.9405,-8.9492,-8.962,-8.9724,-8.9777,-8.9879,-8.9943,-8.9936,-8.9968,-8.996,-8.9969,-8.9789,-8.9753,-8.9972,-8.9972,-8.9971,-8.9971,-8.9971,-8.9971,-8.8517,-8.8602,-8.8682,-8.8789,-8.8851,-8.8924,-8.9008,-8.9051,-8.9145,-8.9256,-8.9264,-8.9385,-8.946,-8.9593,-8.9642,-8.9735,-8.9702,-8.9741,-8.975,-8.9758,-8.9763,-8.9508,-8.9754,-8.9753,-8.9753,-8.9752,-8.9752,0,-8.8356,-8.8369,-8.8465,-8.8568,-8.8647,-8.8729,-8.8806,-8.8859,-8.8891,-8.8968,-8.9081,-8.9148,-8.9282,-8.9387,-8.9487,-8.9529,-8.951,-8.9513,-8.9539,-8.9532,-8.9516,-8.952,-8.922,-8.9503,-8.9501,-8.95,-8.9498,-8.9498,-8.8123,-8.8222,-8.8316,-8.838,-8.8428,-8.8532,-8.8597,-8.8619,-8.8686,-8.8784,-8.8856,-8.8965,-8.9051,-8.9225,-8.9268,-8.9367,-8.9356,-8.9462,-8.937,-8.9363,-8.9351,-8.9342,-8.935,-8.9476,-8.9479,-8.9481,-8.9483,0,-8.7989,-8.8025,-8.8184,-8.8267,-8.829,-8.8391,-8.846,-8.8545,-8.8576,-8.8697,-8.8726,-8.8772,-8.888,-8.8907,-8.9036,-8.9046,-8.9206,-8.9198,-8.918,-8.9177,-8.927,-8.9258,-8.9576,-8.9617,-8.9364,-8.9367,-8.9369,0,-8.7802,-8.793,-8.7974,-8.8064,-8.8207,-8.8223,-8.8363,-8.8402,-8.8468,-8.8563,-8.8549,-8.8638,-8.8658,-8.8751,-8.8766,-8.8903,-8.8928,-8.8941,-8.8942,-8.8939,-8.8936,-8.8967,-8.8952,-8.8948,-8.8947,-8.8945,-8.8944,0,-8.7582,-8.7758,-8.7906,-8.795,-8.8049,-8.8118,-8.8162,-8.8234,-8.8297,-8.8384,-8.8424,-8.8524,-8.8577,-8.8653,-8.867,-8.8607,-8.884,-8.8756,-8.8852,-8.8851,-8.8896,-8.8891,-8.9174,-8.8942,-8.8941,-8.8941,-8.894,0,-8.7433,-8.7523,-8.7734,-8.7814,-8.7859,-8.7957,-8.8055,-8.8145,-8.8222,-8.8238,-8.8306,-8.8296,-8.8422,-8.8336,-8.8507,-8.8419,-8.8471,-8.8497,-8.8504,-8.8509,-8.841,-8.8558,-8.883,-8.8856,-8.8525,-8.8521,-8.8518,0,-8.717,-8.7392,-8.7406,-8.7606,-8.771,-8.7685,-8.7794,-8.7863,-8.7893,-8.7984,-8.8017,-8.812,-8.8063,-8.8097,-8.818,-8.8215,-8.833,-8.8201,-8.8324,-8.8329,-8.8298,-8.8552,-8.8581,-8.877,-8.8475,-8.8479,-8.8482,0,-8.6968,-8.7088,-8.7123,-8.7173,-8.7268,-8.7356,-8.7482,-8.7589,-8.7648,-8.7729,-8.783,-8.798,-8.794,-8.7999,-8.8,-8.8085,-8.8253,-8.8029,-8.8031,-8.8064,-8.8456,-8.8484,-8.8516,-8.8235,-8.8241,-8.8245,-8.8448,0,-8.6724,-8.684,-8.6937,-8.7049,-8.7122,-8.7249,-8.7276,-8.7349,-8.7343,-8.737,-8.7523,-8.7585,-8.7691,-8.7736,-8.773,-8.7916,-8.7887,-8.7843,-8.7754,-8.7923,-8.799,-8.8018,-8.7653,-8.7651,-8.7649,-8.7647,0,0,-8.6459,-8.6625,-8.6636,-8.6759,-8.6819,-8.6789,-8.6921,-8.6977,-8.709,-8.7131,-8.7084,-8.7301,-8.7352,-8.7533,-8.7588,-8.7633,-8.7666,-8.7606,-8.7844,-8.7866,-8.7887,-8.7958,-8.7987,-8.7644,-8.7643,-8.7642,-8.7641,0,-8.6374,-8.6433,-8.6566,-8.6625,-8.6712,-8.6734,-8.6767,-8.6845,-8.6868,-8.702,-8.6987,-8.7082,-8.7256,-8.7312,-8.7363,-8.7588,-8.7554,-8.7619,-8.7729,-8.7823,-8.7848,-8.787,-8.7945,-8.7972,-8.7637,-8.7637,-8.7637,0,-8.6175,-8.6236,-8.6303,-8.6443,-8.6499,-8.6608,-8.6524,-8.6643,-8.6723,-8.6678,-8.6827,-8.6864,-8.6943,-8.7113,-8.719,-8.7148,-8.745,-8.7361,-8.7374,-8.7381,-8.7473,-8.7503,-8.7529,-8.718,-8.7178,-8.7176,0,0,-8.6097,-8.6205,-8.6273,-8.6426,-8.6464,-8.6499,-8.6559,-8.6559,-8.6632,-8.6661,-8.6706,-8.6777,-8.6876,-8.6942,-8.7037,-8.7221,-8.7235,-8.7303,-8.7325,-8.7343,-8.7358,-8.7455,-8.7485,-8.717,-8.717,-8.717,0,0,-8.6058,-8.6143,-8.6125,-8.6307,-8.6379,-8.6452,-8.6544,-8.6522,-8.661,-8.6598,-8.66,-8.6618,-8.6778,-8.6815,-8.6727,-8.7004,-8.6917,-8.6939,-8.6973,-8.7001,-8.7022,-8.7006,-8.6644,0,0,0,0,0,-8.5982,-8.6133,-8.6115,-8.615,-8.6324,-8.6463,-8.6485,-8.6491,-8.643,-8.6502,-8.6536,-8.6498,-8.6767,-8.6689,-8.6722,-8.6817,-8.7087,-8.7102,-8.7116,-8.7204,-8.7232,-8.7256,0,0,0,0,0,0,-8.5996,-8.6038,-8.6111,-8.6192,-8.6231,-8.6458,-8.6354,-8.636,-8.6422,-8.6413,-8.6493,-8.6501,-8.6507,-8.6673,-8.6702,-8.6793,-8.6634,-8.7093,-8.7106,-8.7117,-8.7213,-8.7237,-8.7257,0,0,0,0,0,-8.6007,-8.604,-8.6319,-8.619,-8.6224,-8.6268,-8.6348,-8.6352,-8.64,-8.6453,-8.6459,-8.6399,-8.651,-8.6534,-8.669,-8.6779,-8.6613,-8.6624,-8.7101,-8.7111,-8.712,-8.7225,0,0,0,0,0,0,-8.6015,-8.6044,-8.6326,-8.6337,-8.6133,-8.6256,-8.6275,-8.6346,-8.6436,-8.6444,-8.6358,-8.6349,-8.6513,-8.6532,-8.6551,-8.6775,-8.6597,-8.6608,-8.6615,-8.7109,-8.7116,-8.7123,0,0,0,0,0,0,-8.6026,-8.6053,-8.6332,-8.626,-8.6262,-8.6244,-8.6262,-8.6394,-8.6437,-8.6336,-8.6332,-8.6353,-8.6483,-8.6531,-8.6546,-8.6753,-8.6584,-8.6595,-8.6602,-8.6607,-8.7115,-8.7121,0,0,0,0,0,0,-8.6037,-8.6061,-8.6257,-8.6259,-8.626,-8.6378,-8.6361,-8.6539,-8.6379,-8.6332,-8.6364,-8.6358,-8.6483,-8.6498,-8.6542,-8.6743,-8.675,-8.6585,-8.6592,-8.6597,-8.66,0,0,0,0,0,0,0,-8.6047,-8.5888,-8.6264,-8.6258,-8.6259,-8.6434,-8.6437,-8.644,-8.6377,-8.6371,-8.6366,-8.636,-8.6524,-8.6535,-8.6547,-8.6736,0,0,-8.6584,-8.6589,0,0,0,0,0,0,0,0,-8.5878,-8.5886,-8.6265,-8.6267,-8.6269,-8.6434,-8.6437,-8.6439,-8.6376,-8.6372,-8.6367,-8.6363,-8.6527,-8.6536,-8.6546,0,0,0,0,0,0,0,0,0,0,0,0,0,0,0,-8.6265,-8.6267,0,-8.6435,-8.6437,-8.6439,-8.6376,-8.6372,-8.6368,-8.6364,-8.6529,-8.6537,-8.6545,0,0,0,0,0,0,0,0,0,0,0,0,0,0,0,0,0,0,0,0,0,0,0,0,0,0,0,0,0,0,0,0,0,0,0,0,0,0,0,0,0,0,0,0,0,0,0,0,0,0,0,0,0,0,0,0,0,0,0,0,0,0,0,0,0,0,0,0,0]}],[{"header":{"parameterUnit":"kt","parameterCategory":2,"dx":1,"dy":1,"la1":30.253999710083008,"la2":30.299108505249023,"lo1":-89.0895004272461,"lo2":-89.04439544677734,"nx":28,"ny":28,"refTime":"2022-10-22T21:00:00:Z","depth":0,"parameterNumber":2,"parameterNumberName":"V-component_of_WINDS"},"data":[6.496,6.5069,6.5101,6.524,6.5292,6.5391,6.5436,6.5497,6.5553,6.5674,6.5748,6.5788,6.5854,6.5948,6.6027,6.6043,6.6074,6.6091,6.6106,6.6003,6.599,6.5978,6.5954,6.6098,6.6099,6.6208,6.6209,6.6209,6.4885,6.4938,6.5021,6.5122,6.5193,6.5196,6.5275,6.5333,6.5421,6.549,6.5564,6.5671,6.5759,6.5819,6.5907,6.5956,6.596,6.5978,6.5973,6.5983,6.5874,6.5849,6.5973,6.5973,6.5973,6.5973,6.5973,6.5973,6.4758,6.4822,6.4901,6.4991,6.505,6.5117,6.5182,6.5231,6.531,6.5408,6.5427,6.5525,6.5598,6.5717,6.5763,6.5839,6.5824,6.5851,6.5857,6.5863,6.5866,6.5704,6.5855,6.5855,6.5855,6.5854,6.5854,0,6.4673,6.4695,6.4776,6.4867,6.4933,6.5005,6.5075,6.5117,6.5169,6.5231,6.5324,6.5382,6.5495,6.5583,6.5671,6.5713,6.5717,6.5721,6.5739,6.573,6.5713,6.5722,6.5543,6.5715,6.5714,6.5713,6.5712,6.5712,6.4545,6.4616,6.4713,6.4766,6.4812,6.4895,6.495,6.4991,6.5047,6.5138,6.5191,6.5281,6.5354,6.5495,6.5545,6.5628,6.563,6.5693,6.5642,6.5633,6.563,6.5624,6.5631,6.5701,6.5702,6.5703,6.5704,0,6.447,6.452,6.4639,6.4726,6.475,6.4822,6.4895,6.4959,6.4998,6.5091,6.5115,6.5173,6.5262,6.5303,6.541,6.5429,6.5544,6.5545,6.552,6.5522,6.5581,6.5574,6.5768,6.5796,6.5649,6.565,6.5651,0,6.4379,6.447,6.4538,6.4604,6.4706,6.4745,6.4844,6.4886,6.495,6.5023,6.5036,6.5104,6.5146,6.522,6.5246,6.5348,6.5368,6.5387,6.5393,6.5385,6.5382,6.5411,6.5403,6.5404,6.5403,6.5402,6.5401,0,6.4255,6.4397,6.4505,6.4545,6.4645,6.4694,6.4738,6.4808,6.486,6.4935,6.4969,6.5052,6.5096,6.516,6.5193,6.5157,6.5319,6.5276,6.5338,6.5337,6.5368,6.5365,6.553,6.54,6.54,6.5399,6.5399,0,6.4187,6.4265,6.4415,6.4498,6.4533,6.4604,6.4689,6.4759,6.4831,6.4853,6.4911,6.4923,6.5016,6.4971,6.5098,6.5042,6.5085,6.5112,6.5117,6.5125,6.5072,6.5157,6.5313,6.5329,6.5137,6.5135,6.5133,0,6.4031,6.4195,6.4228,6.4369,6.445,6.446,6.4538,6.4602,6.4638,6.471,6.4748,6.4828,6.4804,6.4834,6.4892,6.4933,6.5007,6.4925,6.5024,6.5027,6.5004,6.5148,6.5159,6.5275,6.5105,6.5108,6.511,0,6.3915,6.4037,6.4059,6.4106,6.4197,6.4263,6.4354,6.4443,6.4489,6.4558,6.4633,6.4747,6.4733,6.4782,6.4798,6.4857,6.4958,6.4832,6.4834,6.4852,6.5095,6.5106,6.5125,6.4956,6.496,6.4962,6.5089,0,6.38,6.3888,6.3951,6.4051,6.411,6.4199,6.4243,6.4298,6.431,6.4345,6.4456,6.4515,6.4601,6.4634,6.4644,6.4765,6.475,6.4732,6.4688,6.4783,6.4825,6.4842,6.4622,6.4621,6.462,6.4619,0,0,6.3638,6.3763,6.3795,6.3884,6.3935,6.3942,6.4033,6.4083,6.4181,6.4215,6.4192,6.436,6.4407,6.4536,6.4569,6.4604,6.4629,6.4593,6.4738,6.4751,6.4763,6.4807,6.4825,6.4618,6.4617,6.4617,6.4617,0,6.3604,6.3659,6.375,6.3804,6.3884,6.3916,6.3938,6.4017,6.4043,6.4151,6.4152,6.4222,6.4354,6.4405,6.4448,6.458,6.4574,6.4604,6.4661,6.4727,6.4741,6.4754,6.4801,6.4817,6.4614,6.4615,6.4615,0,6.3497,6.3557,6.3605,6.3722,6.3773,6.3854,6.3821,6.3908,6.3968,6.3965,6.4071,6.4109,6.4179,6.4296,6.4349,6.4328,6.4521,6.4467,6.4474,6.4479,6.4545,6.4562,6.4577,6.4376,6.4375,6.4374,0,0,6.3461,6.3542,6.3616,6.3717,6.375,6.3799,6.3846,6.3861,6.3927,6.3953,6.4,6.4062,6.4139,6.4188,6.4262,6.4383,6.44,6.4436,6.4447,6.4456,6.4467,6.4535,6.4552,6.4371,6.4371,6.437,0,0,6.3443,6.3534,6.3534,6.3658,6.3722,6.3798,6.3858,6.3859,6.393,6.3923,6.395,6.3968,6.4077,6.4112,6.4058,6.4246,6.4202,6.4215,6.4218,6.4233,6.4244,6.4231,6.4028,0,0,0,0,0,6.343,6.3523,6.3523,6.355,6.3694,6.38,6.3818,6.3844,6.3813,6.386,6.39,6.389,6.4089,6.4042,6.4067,6.4125,6.4323,6.4331,6.4339,6.4372,6.4387,6.4399,0,0,0,0,0,0,6.3441,6.3474,6.352,6.3601,6.3634,6.3797,6.375,6.376,6.3809,6.3806,6.3883,6.3892,6.3914,6.4031,6.4053,6.4108,6.402,6.4326,6.4333,6.434,6.4377,6.4389,6.44,0,0,0,0,0,6.3449,6.3476,6.3701,6.36,6.3628,6.3686,6.3747,6.3754,6.3793,6.3853,6.3863,6.3808,6.3915,6.3935,6.4044,6.4098,6.4005,6.4013,6.4331,6.4336,6.4341,6.4383,0,0,0,0,0,0,6.3456,6.3483,6.3707,6.3716,6.3566,6.3677,6.3696,6.375,6.3837,6.3848,6.3779,6.3776,6.3917,6.3932,6.3948,6.4093,6.3993,6.4001,6.4006,6.4335,6.4339,6.4343,0,0,0,0,0,0,6.3469,6.3491,6.3712,6.3668,6.3673,6.3669,6.3686,6.378,6.3838,6.3758,6.3758,6.3777,6.3893,6.3931,6.3943,6.409,6.3984,6.3992,6.3997,6.4,6.4339,6.4342,0,0,0,0,0,0,6.3478,6.3498,6.3666,6.3669,6.3673,6.3781,6.3753,6.3898,6.3804,6.3754,6.3796,6.3792,6.3891,6.3904,6.3939,6.4081,6.4088,6.3984,6.3989,6.3993,6.3996,0,0,0,0,0,0,0,6.3486,6.3353,6.3651,6.367,6.3674,6.3804,6.3807,6.3809,6.3803,6.38,6.3797,6.3794,6.3939,6.3947,6.3956,6.4074,0,0,6.3983,6.3987,0,0,0,0,0,0,0,0,6.3346,6.3351,6.3651,6.3653,6.3655,6.3805,6.3807,6.3809,6.3803,6.38,6.3797,6.3795,6.3941,6.3948,6.3955,0,0,0,0,0,0,0,0,0,0,0,0,0,0,0,6.3651,6.3653,0,6.3805,6.3807,6.3808,6.3802,6.38,6.3798,6.3796,6.3943,6.3949,6.3955,0,0,0,0,0,0,0,0,0,0,0,0,0,0,0,0,0,0,0,0,0,0,0,0,0,0,0,0,0,0,0,0,0,0,0,0,0,0,0,0,0,0,0,0,0,0,0,0,0,0,0,0,0,0,0,0,0,0,0,0,0,0,0,0,0,0,0,0,0]}]]]